Flag for Romania Weather past 2 weeks in Constanța, Romania

Now
81 °F

Sunny.


Feels Like: 83 °F
Forecast: 69 / 78 °F
Wind: 2 mph from East

Location: Constanta

Current Time: Aug 27, 2014 at 12:43:53 PM

Latest Report: Aug 27, 2014 at 12:00 PM


Visibility: 6 mi

Pressure: 29.83 "Hg

Humidity: 66%

Dew point: 68 °F

Location of ConstanțaLocation

Historic Weather in Constanța — Graph

°F

Constanța temperature yesterday

Maximum temperature yesterday: 78 °F (at 12:00 PM)
Minimum temperature yesterday: 65 °F (at 5:00 AM)
Average temperature yesterday: 72 °F

Past Weeks' High & Low Weather Summary

 TemperatureHumidityPressure
High89 °F (Aug 12, 5:00 PM)100% (Aug 17, 4:00 AM)30.09 "Hg (Aug 17, 4:00 AM)
Low63 °F (Aug 19, 7:00 AM)37% (Aug 19, 12:00 PM)29.76 "Hg (Aug 15, 7:00 PM)
Average75 °F71%29.93 "Hg
* Reported Aug 12 11:00 AM — Aug 27 11:00 AM, Constanța, Weather by CustomWeather, © 2014

Note: Actual official high and low records may vary slightly from our data, if they occured in-between our weather recording intervals... More about our weather records

Advertising

Constanța weather history for previous 24 hours

 ConditionsComfort  
Time TempWeatherWind HumidityBarometerVisibility
11:00 AM
Aug 27
80 °FSunny.1 mph57%29.85 "Hg6 mi
10:00 AM77 °FSunny.1 mph61%29.85 "Hg6 mi
9:00 AM74 °FSunny.1 mph70%29.85 "Hg6 mi
8:00 AM70 °FSunny.1 mph77%29.85 "Hg6 mi
7:00 AM67 °FSunny.No wind85%29.85 "Hg6 mi
6:00 AM68 °FClear.1 mph81%29.85 "Hg6 mi
5:00 AM68 °FClear.1 mph77%29.87 "Hg6 mi
4:00 AM68 °FClear.1 mph76%29.87 "Hg6 mi
3:00 AM69 °FClear.1 mph74%29.88 "Hg6 mi
2:00 AM69 °FClear.1 mph73%29.89 "Hg6 mi
1:00 AM68 °FClear.No wind77%29.90 "Hg6 mi
12:00 AM71 °FClear.No wind76%29.91 "Hg6 mi
11:00 PM
Aug 26
72 °FClear.No wind71%29.92 "Hg6 mi
10:00 PM72 °FPassing clouds.No wind71%29.93 "Hg6 mi
9:00 PM73 °FPassing clouds.1 mph67%29.93 "Hg6 mi
8:00 PM74 °FPassing clouds.1 mph65%29.93 "Hg6 mi
7:00 PM75 °FPartly sunny.3 mph59%29.93 "Hg6 mi
6:00 PM76 °FPartly sunny.3 mph56%29.96 "Hg6 mi
5:00 PM77 °FPartly sunny.3 mph57%29.96 "Hg6 mi
4:00 PM77 °FOvercast.3 mph55%29.98 "Hg6 mi
3:00 PM77 °FPassing clouds.3 mph55%30.00 "Hg6 mi
2:00 PM78 °FPassing clouds.3 mph55%30.01 "Hg6 mi
1:00 PM77 °FScattered clouds.3 mph52%30.03 "Hg6 mi
12:00 PM78 °FPartly sunny.3 mph51%30.05 "Hg6 mi
Weather by CustomWeather, © 2014

See weather overviewHow to use our weather pages